Time,TemperatureF,DewpointF,PressureIn,WindDirection,WindDirectionDegrees,WindSpeedMPH,WindSpeedGustMPH,Humidity,HourlyPrecipIn,Conditions,Clouds,dailyrainin,SoftwareType,DateUTC
2013-04-22 00:02:00,54.0,44.0,30.02,SSE,161,5.0,12.0,70,0.00,,,0.00,,2013-04-22 05:02:00,
2013-04-22 00:12:00,54.0,44.0,30.02,SSE,161,5.0,12.0,70,0.00,,,0.00,,2013-04-22 05:12:00,
2013-04-22 00:22:00,55.0,45.0,30.01,SSE,163,10.0,16.0,68,0.00,,,0.00,,2013-04-22 05:22:00,
2013-04-22 00:32:00,55.0,44.0,30.01,South,180,9.0,18.0,67,0.00,,,0.00,,2013-04-22 05:32:00,
2013-04-22 00:42:00,55.0,44.0,30.01,South,180,9.0,18.0,67,0.00,,,0.00,,2013-04-22 05:42:00,
2013-04-22 00:52:00,55.0,44.0,30.01,SSE,156,10.0,15.0,66,0.00,,,0.00,,2013-04-22 05:52:00,
2013-04-22 01:02:00,55.0,44.0,30.01,South,176,10.0,18.0,66,0.00,,,0.00,,2013-04-22 06:02:00,
2013-04-22 01:12:00,55.0,44.0,30.01,South,176,10.0,18.0,66,0.00,,,0.00,,2013-04-22 06:12:00,
2013-04-22 01:21:00,55.0,44.0,30.01,SSE,161,9.0,16.0,67,0.00,,,0.00,,2013-04-22 06:21:00,
2013-04-22 01:32:00,55.0,44.0,30.01,South,176,10.0,15.0,67,0.00,,,0.00,,2013-04-22 06:32:00,
2013-04-22 01:42:00,55.0,44.0,30.01,South,176,10.0,15.0,67,0.00,,,0.00,,2013-04-22 06:42:00,
2013-04-22 01:52:00,55.0,44.0,30.01,South,175,9.0,19.0,66,0.00,,,0.00,,2013-04-22 06:52:00,
2013-04-22 02:01:00,55.0,44.0,30.01,SSW,205,10.0,18.0,67,0.00,,,0.00,,2013-04-22 07:01:00,
2013-04-22 02:12:00,55.0,44.0,30.01,SSW,205,10.0,18.0,67,0.00,,,0.00,,2013-04-22 07:12:00,
2013-04-22 02:21:00,54.0,43.0,30.00,SSW,194,11.0,16.0,67,0.00,,,0.00,,2013-04-22 07:21:00,
2013-04-22 02:32:00,54.0,44.0,30.00,South,182,9.0,15.0,68,0.00,,,0.00,,2013-04-22 07:32:00,
2013-04-22 02:42:00,54.0,44.0,30.00,South,182,9.0,15.0,68,0.00,,,0.00,,2013-04-22 07:42:00,
2013-04-22 02:52:00,54.0,44.0,29.99,South,178,11.0,16.0,68,0.00,,,0.00,,2013-04-22 07:52:00,
2013-04-22 03:02:00,54.0,44.0,29.99,South,172,9.0,18.0,69,0.00,,,0.00,,2013-04-22 08:02:00,
2013-04-22 03:11:00,54.0,44.0,29.99,South,172,9.0,18.0,69,0.00,,,0.00,,2013-04-22 08:11:00,
2013-04-22 03:22:00,53.0,43.0,29.99,SSE,159,7.0,13.0,70,0.00,,,0.00,,2013-04-22 08:22:00,
2013-04-22 03:32:00,53.0,44.0,29.98,SSE,167,9.0,13.0,71,0.00,,,0.00,,2013-04-22 08:32:00,
2013-04-22 03:42:00,53.0,44.0,29.98,SSE,167,9.0,13.0,71,0.00,,,0.00,,2013-04-22 08:42:00,
2013-04-22 03:52:00,53.0,44.0,29.98,South,172,8.0,16.0,71,0.00,,,0.00,,2013-04-22 08:52:00,
2013-04-22 04:01:00,52.0,43.0,29.97,South,171,8.0,15.0,72,0.00,,,0.00,,2013-04-22 09:01:00,
2013-04-22 04:11:00,52.0,43.0,29.97,South,171,8.0,15.0,72,0.00,,,0.00,,2013-04-22 09:11:00,
2013-04-22 04:21:00,52.0,44.0,29.98,SSW,194,9.0,15.0,73,0.00,,,0.00,,2013-04-22 09:21:00,
2013-04-22 04:33:00,51.0,43.0,29.99,South,170,4.0,15.0,74,0.00,,,0.00,,2013-04-22 09:33:00,
2013-04-22 04:42:00,51.0,43.0,29.99,South,170,4.0,15.0,74,0.00,,,0.00,,2013-04-22 09:42:00,
2013-04-22 04:52:00,51.0,43.0,30.00,South,175,3.0,7.0,75,0.00,,,0.00,,2013-04-22 09:52:00,
2013-04-22 05:03:00,51.0,44.0,30.00,South,181,3.0,7.0,76,0.00,,,0.00,,2013-04-22 10:03:00,
2013-04-22 05:12:00,51.0,44.0,30.00,South,181,3.0,7.0,76,0.00,,,0.00,,2013-04-22 10:12:00,
2013-04-22 05:22:00,51.0,44.0,29.99,South,185,3.0,8.0,76,0.00,,,0.00,,2013-04-22 10:22:00,
2013-04-22 05:32:00,52.0,44.0,29.98,South,186,7.0,12.0,75,0.00,,,0.00,,2013-04-22 10:32:00,
2013-04-22 05:42:00,52.0,44.0,29.98,South,186,7.0,12.0,75,0.00,,,0.00,,2013-04-22 10:42:00,
2013-04-22 05:52:00,52.0,44.0,29.97,SSW,201,8.0,17.0,74,0.00,,,0.00,,2013-04-22 10:52:00,
2013-04-22 06:02:00,53.0,45.0,29.96,South,178,6.0,16.0,74,0.00,,,0.00,,2013-04-22 11:02:00,
2013-04-22 06:12:00,53.0,45.0,29.95,South,186,6.0,17.0,73,0.00,,,0.00,,2013-04-22 11:12:00,
2013-04-22 06:22:00,53.0,45.0,29.95,South,186,6.0,17.0,73,0.00,,,0.00,,2013-04-22 11:22:00,
2013-04-22 06:32:00,53.0,44.0,29.96,South,177,6.0,12.0,72,0.00,,,0.00,,2013-04-22 11:32:00,
2013-04-22 06:42:00,53.0,44.0,29.96,South,177,6.0,12.0,72,0.00,,,0.00,,2013-04-22 11:42:00,
2013-04-22 06:52:00,52.0,44.0,29.96,South,180,0.0,8.0,75,0.00,,,0.00,,2013-04-22 11:52:00,
2013-04-22 07:02:00,53.0,45.0,29.97,South,180,1.0,5.0,73,0.00,,,0.00,,2013-04-22 12:02:00,
2013-04-22 07:12:00,53.0,45.0,29.97,South,180,1.0,5.0,73,0.00,,,0.00,,2013-04-22 12:12:00,
2013-04-22 07:21:00,54.0,45.0,29.97,South,179,5.0,10.0,71,0.00,,,0.00,,2013-04-22 12:21:00,
2013-04-22 07:32:00,54.0,45.0,29.97,South,190,7.0,13.0,72,0.00,,,0.00,,2013-04-22 12:32:00,
2013-04-22 07:42:00,54.0,45.0,29.97,South,190,7.0,13.0,72,0.00,,,0.00,,2013-04-22 12:42:00,
2013-04-22 07:52:00,54.0,46.0,29.97,SSE,156,5.0,15.0,73,0.00,,,0.00,,2013-04-22 12:52:00,
2013-04-22 08:01:00,53.0,45.0,29.99,SW,226,0.0,7.0,74,0.00,,,0.00,,2013-04-22 13:01:00,
2013-04-22 08:11:00,53.0,45.0,29.99,SW,226,0.0,7.0,74,0.00,,,0.00,,2013-04-22 13:11:00,
2013-04-22 08:22:00,53.0,45.0,29.99,South,178,4.0,6.0,74,0.00,,,0.00,,2013-04-22 13:22:00,
2013-04-22 08:32:00,52.0,45.0,29.99,South,178,0.0,2.0,77,0.00,,,0.00,,2013-04-22 13:32:00,
2013-04-22 08:42:00,52.0,45.0,29.99,South,178,0.0,2.0,77,0.00,,,0.00,,2013-04-22 13:42:00,
2013-04-22 08:52:00,52.0,46.0,29.98,SE,142,6.0,6.0,81,0.01,,,0.01,,2013-04-22 13:52:00,
2013-04-22 09:02:00,51.0,46.0,29.97,SE,144,4.0,4.0,83,0.01,,,0.01,,2013-04-22 14:02:00,
2013-04-22 09:11:00,51.0,47.0,29.96,SE,142,7.0,9.0,85,0.01,,,0.01,,2013-04-22 14:11:00,
2013-04-22 09:21:00,51.0,47.0,29.96,SE,142,7.0,9.0,85,0.01,,,0.01,,2013-04-22 14:21:00,
2013-04-22 09:33:00,53.0,48.0,29.95,SSE,153,9.0,14.0,82,0.01,,,0.01,,2013-04-22 14:33:00,
2013-04-22 09:42:00,53.0,48.0,29.95,SSE,153,9.0,14.0,82,0.01,,,0.01,,2013-04-22 14:42:00,
2013-04-22 09:52:00,54.0,47.0,29.96,South,175,11.0,14.0,78,0.00,,,0.01,,2013-04-22 14:52:00,
2013-04-22 10:02:00,54.0,47.0,29.95,SSE,154,7.0,13.0,78,0.00,,,0.01,,2013-04-22 15:02:00,
2013-04-22 10:12:00,54.0,47.0,29.95,SSE,154,7.0,13.0,78,0.00,,,0.01,,2013-04-22 15:12:00,
2013-04-22 10:22:00,53.0,46.0,29.95,SSE,150,5.0,13.0,78,0.00,,,0.01,,2013-04-22 15:22:00,
2013-04-22 10:33:00,53.0,46.0,29.94,SSE,161,7.0,13.0,78,0.00,,,0.01,,2013-04-22 15:33:00,
2013-04-22 10:43:00,53.0,46.0,29.94,SSE,161,7.0,13.0,78,0.00,,,0.01,,2013-04-22 15:43:00,
2013-04-22 10:53:00,53.0,46.0,29.93,SE,142,11.0,16.0,77,0.00,,,0.01,,2013-04-22 15:53:00,
2013-04-22 11:02:00,54.0,47.0,29.93,SSE,159,10.0,16.0,77,0.00,,,0.01,,2013-04-22 16:02:00,
2013-04-22 11:12:00,54.0,47.0,29.93,SSE,159,10.0,16.0,77,0.00,,,0.01,,2013-04-22 16:12:00,
2013-04-22 11:23:00,56.0,47.0,29.92,SSE,150,12.0,19.0,73,0.00,,,0.01,,2013-04-22 16:23:00,
2013-04-22 11:33:00,58.0,48.0,29.90,SE,141,13.0,24.0,70,0.00,,,0.01,,2013-04-22 16:33:00,
2013-04-22 11:42:00,58.0,48.0,29.90,SE,141,13.0,24.0,70,0.00,,,0.01,,2013-04-22 16:42:00,
2013-04-22 11:52:00,59.0,48.0,29.90,SE,145,16.0,26.0,67,0.00,,,0.01,,2013-04-22 16:52:00,
2013-04-22 12:02:00,57.0,47.0,29.92,SSE,163,15.0,21.0,68,0.00,,,0.01,,2013-04-22 17:02:00,
2013-04-22 12:12:00,57.0,47.0,29.92,SSE,163,15.0,21.0,68,0.00,,,0.01,,2013-04-22 17:12:00,
2013-04-22 12:22:00,56.0,47.0,29.91,South,177,12.0,18.0,71,0.00,,,0.01,,2013-04-22 17:22:00,
2013-04-22 12:32:00,55.0,47.0,29.90,SSE,155,10.0,14.0,73,0.00,,,0.01,,2013-04-22 17:32:00,
2013-04-22 12:42:00,55.0,47.0,29.90,SSE,155,10.0,14.0,73,0.00,,,0.01,,2013-04-22 17:42:00,
2013-04-22 12:52:00,55.0,47.0,29.91,South,181,8.0,12.0,74,0.01,,,0.02,,2013-04-22 17:52:00,
2013-04-22 13:01:00,54.0,48.0,29.91,SSE,167,5.0,11.0,79,0.02,,,0.03,,2013-04-22 18:01:00,
2013-04-22 13:12:00,54.0,48.0,29.91,SSE,167,5.0,11.0,79,0.02,,,0.03,,2013-04-22 18:12:00,
2013-04-22 13:21:00,53.0,48.0,29.89,SSE,164,4.0,9.0,83,0.10,,,0.11,,2013-04-22 18:21:00,
2013-04-22 13:32:00,53.0,48.0,29.88,SE,130,4.0,10.0,83,0.13,,,0.14,,2013-04-22 18:32:00,
2013-04-22 13:42:00,53.0,48.0,29.88,SE,130,4.0,10.0,83,0.13,,,0.14,,2013-04-22 18:42:00,
2013-04-22 13:52:00,53.0,49.0,29.87,SE,130,6.0,13.0,86,0.13,,,0.15,,2013-04-22 18:52:00,
2013-04-22 14:01:00,53.0,49.0,29.88,SE,144,8.0,12.0,85,0.12,,,0.15,,2013-04-22 19:01:00,
2013-04-22 14:12:00,53.0,49.0,29.88,SE,144,8.0,12.0,85,0.12,,,0.15,,2013-04-22 19:12:00,
2013-04-22 14:21:00,54.0,49.0,29.88,SE,136,7.0,11.0,84,0.04,,,0.15,,2013-04-22 19:21:00,
2013-04-22 14:32:00,54.0,49.0,29.88,SE,146,6.0,10.0,84,0.01,,,0.15,,2013-04-22 19:32:00,
2013-04-22 14:42:00,54.0,49.0,29.88,SE,146,6.0,10.0,84,0.01,,,0.15,,2013-04-22 19:42:00,
2013-04-22 14:52:00,54.0,49.0,29.88,SE,140,6.0,10.0,84,0.00,,,0.15,,2013-04-22 19:52:00,
2013-04-22 15:02:00,54.0,50.0,29.88,SE,138,4.0,7.0,85,0.00,,,0.15,,2013-04-22 20:02:00,
2013-04-22 15:11:00,54.0,50.0,29.88,SE,138,4.0,7.0,85,0.00,,,0.15,,2013-04-22 20:11:00,
2013-04-22 15:22:00,54.0,49.0,29.88,ESE,121,0.0,10.0,84,0.00,,,0.15,,2013-04-22 20:22:00,
2013-04-22 15:32:00,55.0,51.0,29.87,SE,130,3.0,7.0,85,0.00,,,0.15,,2013-04-22 20:32:00,
2013-04-22 15:42:00,55.0,51.0,29.87,SE,130,3.0,7.0,85,0.00,,,0.15,,2013-04-22 20:42:00,
2013-04-22 15:51:00,55.0,50.0,29.86,ESE,122,5.0,7.0,84,0.00,,,0.15,,2013-04-22 20:51:00,
2013-04-22 16:02:00,56.0,51.0,29.86,ESE,117,6.0,11.0,82,0.00,,,0.15,,2013-04-22 21:02:00,
2013-04-22 16:11:00,56.0,51.0,29.86,ESE,117,6.0,11.0,82,0.00,,,0.15,,2013-04-22 21:11:00,
2013-04-22 16:21:00,56.0,51.0,29.85,SE,132,3.0,7.0,82,0.00,,,0.15,,2013-04-22 21:21:00,
2013-04-22 16:32:00,57.0,52.0,29.86,NNW,338,0.0,1.0,82,0.00,,,0.15,,2013-04-22 21:32:00,
2013-04-22 16:43:00,57.0,52.0,29.86,NNW,338,0.0,1.0,82,0.00,,,0.15,,2013-04-22 21:43:00,
2013-04-22 16:53:00,56.0,51.0,29.85,NNW,336,0.0,0.0,84,0.00,,,0.15,,2013-04-22 21:53:00,
2013-04-22 17:02:00,58.0,52.0,29.85,NNW,336,0.0,0.0,81,0.00,,,0.15,,2013-04-22 22:02:00,
2013-04-22 17:12:00,58.0,52.0,29.85,NNW,336,0.0,0.0,81,0.00,,,0.15,,2013-04-22 22:12:00,
2013-04-22 17:22:00,59.0,53.0,29.86,NNW,336,0.0,0.0,80,0.00,,,0.15,,2013-04-22 22:22:00,
2013-04-22 17:33:00,59.0,52.0,29.86,NNW,336,0.0,2.0,78,0.00,,,0.15,,2013-04-22 22:33:00,
2013-04-22 17:42:00,59.0,52.0,29.86,NNW,336,0.0,2.0,78,0.00,,,0.15,,2013-04-22 22:42:00,
2013-04-22 17:52:00,59.0,52.0,29.86,NNW,336,0.0,0.0,79,0.00,,,0.15,,2013-04-22 22:52:00,
2013-04-22 18:02:00,59.0,53.0,29.87,NNW,336,0.0,1.0,80,0.00,,,0.15,,2013-04-22 23:02:00,
2013-04-22 18:11:00,59.0,52.0,29.87,NNW,336,0.0,0.0,79,0.00,,,0.15,,2013-04-22 23:11:00,
2013-04-22 18:21:00,59.0,52.0,29.87,NNW,336,0.0,0.0,79,0.00,,,0.15,,2013-04-22 23:21:00,
2013-04-22 18:32:00,58.0,52.0,29.89,North,351,5.0,11.0,80,0.00,,,0.15,,2013-04-22 23:32:00,
2013-04-22 18:42:00,58.0,52.0,29.89,North,351,5.0,11.0,80,0.00,,,0.15,,2013-04-22 23:42:00,
2013-04-22 18:52:00,55.0,50.0,29.90,WNW,287,2.0,12.0,84,0.00,,,0.15,,2013-04-22 23:52:00,
2013-04-22 19:02:00,51.0,46.0,29.91,NW,322,9.0,22.0,82,0.00,,,0.15,,2013-04-23 00:02:00,
2013-04-22 19:12:00,51.0,46.0,29.91,NW,322,9.0,22.0,82,0.00,,,0.15,,2013-04-23 00:12:00,
2013-04-22 19:21:00,46.0,42.0,29.93,North,350,3.0,13.0,86,0.00,,,0.15,,2013-04-23 00:21:00,
2013-04-22 19:32:00,44.0,40.0,29.94,NW,304,5.0,16.0,87,0.00,,,0.15,,2013-04-23 00:32:00,
2013-04-22 19:42:00,44.0,40.0,29.94,NW,304,5.0,16.0,87,0.00,,,0.15,,2013-04-23 00:42:00,
2013-04-22 19:51:00,42.0,38.0,29.96,NNE,26,5.0,16.0,87,0.00,,,0.15,,2013-04-23 00:51:00,
2013-04-22 20:01:00,41.0,38.0,29.99,WNW,284,6.0,18.0,88,0.00,,,0.15,,2013-04-23 01:01:00,
2013-04-22 20:11:00,41.0,38.0,29.99,WNW,284,6.0,18.0,88,0.00,,,0.15,,2013-04-23 01:11:00,
2013-04-22 20:21:00,40.0,37.0,30.01,NE,45,5.0,17.0,88,0.00,,,0.15,,2013-04-23 01:21:00,
2013-04-22 20:32:00,39.0,36.0,30.02,North,351,5.0,18.0,88,0.00,,,0.15,,2013-04-23 01:32:00,
2013-04-22 20:42:00,39.0,36.0,30.02,North,351,5.0,18.0,88,0.00,,,0.15,,2013-04-23 01:42:00,
2013-04-22 20:52:00,39.0,36.0,30.01,NNE,13,4.0,18.0,88,0.00,,,0.15,,2013-04-23 01:52:00,
2013-04-22 21:01:00,39.0,36.0,30.03,NNE,12,3.0,15.0,88,0.00,,,0.15,,2013-04-23 02:01:00,
2013-04-22 21:12:00,39.0,36.0,30.03,NNE,12,3.0,15.0,88,0.00,,,0.15,,2013-04-23 02:12:00,
2013-04-22 21:21:00,38.0,35.0,30.03,NNE,27,2.0,12.0,88,0.00,,,0.15,,2013-04-23 02:21:00,
2013-04-22 21:32:00,38.0,34.0,30.05,NNW,332,5.0,19.0,87,0.00,,,0.15,,2013-04-23 02:32:00,
2013-04-22 21:42:00,38.0,34.0,30.05,NNW,332,5.0,19.0,87,0.00,,,0.15,,2013-04-23 02:42:00,
2013-04-22 21:52:00,38.0,34.0,30.07,North,5,5.0,16.0,87,0.00,,,0.15,,2013-04-23 02:52:00,
2013-04-22 22:01:00,37.0,34.0,30.09,NNW,338,6.0,20.0,87,0.00,,,0.15,,2013-04-23 03:01:00,
2013-04-22 22:11:00,37.0,34.0,30.09,NNW,338,6.0,20.0,87,0.00,,,0.15,,2013-04-23 03:11:00,
2013-04-22 22:21:00,37.0,34.0,30.10,NE,36,7.0,18.0,87,0.00,,,0.15,,2013-04-23 03:21:00,
2013-04-22 22:33:00,37.0,33.0,30.10,NNW,344,4.0,11.0,86,0.00,,,0.15,,2013-04-23 03:33:00,
2013-04-22 22:43:00,37.0,33.0,30.10,NNW,344,4.0,11.0,86,0.00,,,0.15,,2013-04-23 03:43:00,
2013-04-22 22:52:00,37.0,34.0,30.09,NE,55,5.0,13.0,87,0.00,,,0.15,,2013-04-23 03:52:00,
2013-04-22 23:03:00,36.0,33.0,30.08,NNE,33,3.0,15.0,87,0.00,,,0.15,,2013-04-23 04:03:00,
2013-04-22 23:12:00,36.0,33.0,30.08,NNE,33,3.0,15.0,87,0.00,,,0.15,,2013-04-23 04:12:00,
2013-04-22 23:23:00,36.0,33.0,30.09,NE,45,3.0,11.0,88,0.01,,,0.16,,2013-04-23 04:23:00,
2013-04-22 23:33:00,36.0,33.0,30.12,NNE,30,7.0,18.0,88,0.01,,,0.16,,2013-04-23 04:33:00,
2013-04-22 23:43:00,36.0,33.0,30.12,NNE,30,7.0,18.0,88,0.01,,,0.16,,2013-04-23 04:43:00,
2013-04-22 23:52:00,36.0,33.0,30.12,WNW,300,5.0,14.0,87,0.01,,,0.16,,2013-04-23 04:52:00,